Temp
-6 -6 -6 -6 -6 -6 -6 -6 -6 -6 -5 -6 -6 -6 -6 -6 -6 -6 -6 -6 -6 -6 -6 -6 -6 -6 -6 -6 -6 -6 -6 -6 -7 -7 -7 -5 -5 -6 -6 -7 -6 -7 -7
-6 -6 -6 -7 -6 -6 -6 -6 -6 -6 -6 -6 -6 -6 -6 -6 -6 -6 -6 -6 -6 -6 -6 -6 -6 -6 -6 -6 -6 -6 -6 -6 -6 -6 -6 -6 -5 -6 -7 -7 -7 -7 -7
-6 -6 -6 -6 -6 -6 -6 -6 -6 -6 -6 -6 -6 -6 -6 -6 -6 -6 -6 -6 -6 -6 -7 -7 -6 -7 -7 -6 -6 -6 -6 -6 -5 -5 -6 -6 -5 -5 -5 -6 -7 -7 -6
-6 -6 -6 -7 -7 -7 -7 -6 -6 -6 -6 -6 -7 -6 -6 -6 -6 -6 -6 -6 -7 -7 -7 -6 -6 -6 -7 -7 -6 -6 -6 -6 -6 -6 -5 -5 -5 -5 -5 -5 -5 -5 -5
-6 -6 -7 -6 -6 -6 -7 -7 -6 -6 -6 -7 -7 -7 -7 -7 -7 -7 -7 -7 -7 -6 -6 -7 -6 -7 -7 -7 -7 -7 -6 -6 -6 -5 -5 -5 -5 -6 -6 -6 -6 -5 -5
-6 -5 -6 -6 -6 -6 -6 -6 -7 -7 -7 -7 -7 -7 -7 -7 -7 -7 -7 -7 -7 -7 -7 -7 -7 -7 -7 -7 -6 -6 -7 -7 -6 -6 -6 -6 -6 -5 -6 -6 -6 -6 -6
-6 -6 -6 -6 -6 -7 -7 -6 -6 -6 -7 -7 -6 -7 -7 -7 -7 -7 -7 -7 -7 -7 -7 -7 -7 -7 -7 -7 -6 -7 -7 -7 -6 -6 -6 -6 -6 -6 -6 -6 -6 -6 -6
-6 -6 -6 -6 -6 -7 -7 -7 -7 -7 -6 -6 -6 -6 -6 -7 -7 -7 -6 -7 -7 -7 -7 -7 -7 -6 -6 -6 -7 -7 -7 -6 -6 -6 -6 -6 -6 -6 -6 -6 -6 -6 -6
-8 -8 -8 -8 -7 -8 -7 -7 -7 -7 -6 -6 -6 -6 -6 -6 -7 -6 -6 -7 -7 -7 -7 -6 -7 -7 -7 -7 -7 -7 -7 -6 -6 -6 -6 -6 -6 -7 -6 -6 -6 -6 -6
-9 -9 -8 -9 -8 -7 -8 -7 -7 -6 -6 -7 -7 -6 -6 -6 -6 -7 -7 -6 -6 -7 -7 -7 -7 -7 -7 -6 -6 -6 -6 -6 -6 -6 -6 -7 -6 -7 -7 -7 -7 -7 -7
-8 -8 -7 -7 -7 -8 -8 -7 -7 -5 -5 -5 -5 -6 -6 -6 -6 -6 -7 -7 -6 -6 -6 -7 -7 -8 -7 -7 -7 -6 -7 -6 -6 -6 -6 -6 -7 -7 -7 -7 -7 -7 -7
-9 -9 -8 -8 -8 -7 -7 -7 -7 -6 -6 -6 -6 -7 -6 -6 -6 -7 -7 -7 -6 -6 -6 -6 -7 -7 -7 -7 -7 -7 -8 -7 -7 -6 -7 -7 -7 -7 -7 -7 -7 -7 -7
-9 -9 -9 -9 -8 -8 -8 -8 -7 -7 -7 -7 -8 -7 -8 -6 -7 -8 -9 -8 -7 -7 -8 -8 -8 -8 -8 -8 -7 -7 -8 -8 -9 -8 -7 -8 -7 -8 -7 -8 -7 -8 -9
-11 -10 -9 -9 -9 -9 -9 -9 -9 -9 -8 -8 -8 -8 -9 -8 -8 -8 -8 -8 -8 -7 -7 -7 -8 -8 -9 -9 -9 -9 -9 -9 -9 -9 -9 -8 -8 -9 -8 -9 -9 -9 -9
-10 -11 -10 -10 -9 -9 -9 -9 -9 -10 -10 -10 -10 -10 -10 -9 -9 -9 -9 -9 -9 -9 -9 -9 -9 -8 -9 -9 -9 -9 -9 -9 -9 -9 -9 -8 -9 -9 -10 -10 -10 -9 -9
-11 -10 -10 -10 -10 -10 -9 -9 -9 -10 -10 -10 -10 -11 -10 -10 -10 -10 -10 -11 -10 -10 -10 -10 -10 -10 -10 -10 -10 -10 -10 -10 -10 -9 -9 -9 -10 -11 -10 -9 -9 -9 -9
-11 -11 -10 -10 -10 -10 -10 -10 -10 -10 -10 -11 -11 -11 -11 -11 -11 -11 -11 -10 -11 -11 -10 -10 -10 -10 -10 -10 -10 -10 -10 -10 -10 -10 -10 -9 -10 -10 -10 -10 -10 -10 -10
-12 -12 -11 -11 -11 -11 -11 -12 -12 -11 -11 -12 -12 -12 -12 -12 -12 -11 -11 -11 -11 -11 -11 -11 -11 -11 -11 -11 -11 -11 -11 -11 -11 -11 -11 -11 -11 -11 -11 -11 -11 -11 -11
-13 -13 -13 -13 -13 -13 -13 -12 -12 -12 -12 -12 -12 -12 -12 -12 -12 -12 -12 -12 -12 -12 -12 -12 -12 -12 -12 -12 -12 -13 -12 -12 -12 -12 -12 -12 -12 -12 -12 -12 -13 -13 -13
-13 -13 -13 -13 -13 -13 -13 -13 -13 -13 -13 -13 -13 -13 -13 -13 -13 -13 -13 -13 -13 -13 -13 -13 -13 -13 -13 -13 -13 -13 -13 -13 -13 -13 -13 -13 -13 -13 -13 -13 -14 -14 -14
-13 -13 -13 -13 -13 -13 -13 -13 -13 -14 -14 -14 -14 -14 -14 -14 -14 -14 -14 -14 -14 -14 -14 -14 -14 -14 -14 -14 -14 -14 -14 -14 -14 -14 -14 -14 -14 -14 -14 -15 -15 -15 -15
-13 -13 -13 -13 -13 -13 -13 -14 -14 -14 -14 -14 -14 -15 -15 -15 -15 -16 -16 -16 -16 -16 -16 -16 -16 -16 -16 -16 -16 -16 -16 -16 -16 -16 -16 -16 -16 -16 -16 -16 -16 -16 -16
-13 -13 -14 -14 -14 -14 -14 -14 -15 -15 -15 -16 -16 -16 -16 -16 -17 -17 -17 -17 -17 -17 -17 -17 -17 -17 -17 -17 -17 -18 -18 -18 -18 -18 -17 -17 -17 -17 -17 -17 -17 -18 -18
-14 -14 -14 -14 -14 -15 -15 -15 -15 -15 -16 -16 -17 -17 -17 -17 -17 -17 -18 -18 -18 -18 -18 -18 -18 -18 -18 -18 -18 -18 -19 -19 -19 -19 -19 -19 -19 -19 -18 -18 -18 -18 -18
-14 -15 -15 -15 -15 -15 -15 -15 -16 -16 -16 -16 -17 -17 -17 -18 -18 -18 -18 -18 -18 -19 -18 -19 -19 -19 -19 -19 -19 -19 -19 -19 -19 -19 -19 -19 -19 -19 -19 -19 -19 -19 -19
-15 -15 -15 -15 -15 -15 -15 -16 -16 -17 -17 -17 -17 -18 -18 -18 -18 -18 -19 -19 -19 -19 -19 -19 -19 -19 -19 -19 -19 -19 -19 -20 -20 -19 -19 -19 -20 -20 -20 -20 -21 -22 -23
Height
5913 5915 5918 5921 5923 5925 5927 5928 5930 5931 5931 5933 5935 5936 5937 5939 5939 5941 5942 5942 5943 5943 5943 5944 5944 5944 5945 5944 5942 5941 5940 5939 5940 5940 5938 5935 5933 5928 5930 5932 5922 5907 5928
5911 5913 5915 5918 5920 5922 5924 5927 5928 5929 5930 5931 5932 5933 5935 5936 5937 5938 5939 5941 5941 5941 5942 5942 5942 5942 5943 5942 5942 5941 5940 5939 5939 5939 5938 5934 5932 5934 5932 5931 5931 5929 5927
5907 5910 5913 5915 5917 5919 5922 5924 5926 5926 5927 5928 5930 5931 5932 5934 5935 5935 5936 5937 5938 5938 5939 5938 5939 5939 5939 5939 5940 5939 5939 5938 5937 5937 5937 5937 5935 5934 5934 5932 5928 5928 5929
5904 5907 5909 5911 5913 5916 5918 5920 5921 5923 5924 5925 5926 5927 5929 5930 5930 5931 5933 5933 5934 5934 5935 5934 5935 5935 5935 5935 5935 5936 5935 5935 5934 5934 5933 5932 5932 5931 5931 5930 5929 5931 5928
5901 5904 5907 5908 5909 5910 5912 5914 5917 5918 5919 5921 5921 5922 5923 5924 5925 5926 5927 5928 5929 5930 5931 5930 5930 5931 5931 5931 5931 5931 5931 5931 5930 5930 5929 5929 5930 5929 5928 5927 5926 5925 5925
5892 5892 5900 5902 5902 5905 5905 5907 5910 5913 5913 5915 5916 5917 5918 5919 5918 5920 5922 5923 5923 5924 5924 5926 5926 5926 5926 5927 5926 5925 5925 5925 5926 5925 5925 5925 5926 5925 5924 5924 5924 5923 5922
5878 5889 5891 5894 5896 5897 5898 5898 5901 5903 5907 5908 5909 5909 5911 5911 5912 5914 5915 5916 5917 5918 5918 5919 5919 5920 5920 5921 5920 5920 5920 5920 5920 5921 5920 5920 5920 5920 5920 5919 5919 5918 5917
5876 5882 5884 5888 5884 5888 5892 5894 5895 5896 5897 5898 5898 5900 5901 5902 5905 5906 5908 5909 5909 5910 5911 5912 5912 5913 5911 5912 5913 5913 5914 5914 5914 5914 5914 5914 5914 5914 5914 5915 5914 5913 5912
5872 5875 5876 5879 5882 5884 5886 5887 5888 5890 5891 5891 5892 5893 5895 5896 5897 5898 5899 5901 5901 5901 5902 5904 5905 5905 5905 5906 5906 5906 5906 5905 5905 5905 5905 5905 5906 5906 5906 5906 5905 5905 5904
5870 5872 5874 5876 5877 5877 5878 5880 5882 5883 5884 5883 5886 5886 5887 5888 5889 5890 5891 5891 5892 5893 5894 5894 5895 5896 5896 5896 5897 5897 5898 5898 5897 5896 5896 5895 5897 5897 5897 5896 5895 5896 5894
5866 5868 5870 5872 5872 5873 5874 5876 5876 5875 5875 5876 5874 5876 5878 5878 5879 5881 5882 5881 5882 5882 5884 5883 5883 5884 5884 5885 5884 5885 5885 5885 5886 5885 5886 5886 5886 5887 5887 5887 5886 5885 5884
5860 5862 5863 5863 5864 5866 5867 5868 5868 5867 5867 5867 5866 5866 5868 5868 5871 5870 5871 5872 5872 5872 5871 5872 5873 5873 5873 5874 5874 5874 5874 5873 5873 5875 5875 5876 5877 5877 5876 5876 5875 5873 5872
5854 5855 5855 5857 5859 5858 5859 5858 5860 5860 5860 5861 5861 5861 5859 5862 5863 5865 5865 5865 5865 5863 5862 5862 5863 5865 5865 5866 5866 5867 5864 5866 5864 5865 5864 5864 5864 5863 5863 5863 5861 5860 5860
5847 5849 5849 5850 5850 5851 5852 5853 5853 5853 5853 5853 5854 5854 5854 5853 5854 5856 5856 5857 5857 5856 5856 5857 5858 5858 5858 5857 5857 5857 5855 5855 5855 5855 5855 5854 5852 5851 5850 5849 5849 5847 5847
5839 5841 5843 5843 5844 5843 5844 5845 5845 5845 5845 5846 5846 5847 5847 5848 5847 5846 5846 5847 5848 5847 5847 5847 5847 5848 5848 5849 5848 5846 5845 5844 5843 5844 5843 5838 5837 5839 5838 5837 5836 5834 5832
5832 5833 5834 5835 5836 5837 5837 5836 5836 5837 5836 5836 5837 5838 5839 5839 5839 5839 5837 5837 5838 5838 5838 5837 5836 5835 5835 5835 5836 5834 5833 5832 5831 5831 5830 5828 5826 5825 5824 5822 5821 5819 5818
5823 5825 5826 5825 5826 5827 5827 5828 5828 5828 5827 5826 5827 5827 5827 5827 5827 5827 5827 5827 5827 5827 5826 5826 5824 5824 5824 5821 5821 5821 5820 5818 5817 5816 5814 5813 5812 5810 5808 5806 5804 5803 5801
5814 5815 5815 5817 5817 5818 5818 5818 5818 5818 5818 5817 5817 5817 5816 5816 5816 5816 5815 5814 5813 5812 5811 5810 5810 5809 5808 5807 5805 5804 5804 5803 5801 5800 5798 5797 5795 5793 5792 5790 5788 5786 5784
5805 5806 5807 5808 5809 5810 5810 5810 5809 5809 5808 5808 5807 5806 5805 5805 5804 5802 5802 5802 5800 5800 5799 5798 5796 5796 5794 5793 5792 5791 5789 5787 5786 5785 5783 5780 5778 5776 5775 5772 5770 5768 5766
5798 5799 5799 5800 5800 5800 5800 5800 5799 5799 5798 5797 5796 5795 5795 5794 5792 5790 5790 5788 5787 5786 5786 5784 5783 5782 5780 5779 5777 5776 5774 5772 5771 5769 5768 5766 5763 5761 5759 5757 5753 5752 5750
5792 5792 5793 5793 5793 5792 5791 5791 5790 5788 5787 5786 5785 5783 5783 5781 5780 5779 5777 5776 5774 5773 5772 5770 5768 5768 5767 5764 5763 5761 5759 5757 5755 5753 5752 5750 5748 5746 5743 5741 5738 5736 5734
5785 5785 5785 5784 5784 5783 5782 5780 5779 5777 5774 5772 5771 5770 5768 5766 5765 5764 5763 5763 5762 5761 5759 5757 5756 5755 5753 5751 5750 5748 5746 5746 5743 5740 5737 5736 5733 5730 5728 5725 5723 5720 5717
5778 5777 5777 5776 5774 5773 5771 5770 5768 5766 5764 5762 5759 5759 5756 5754 5752 5751 5750 5748 5747 5746 5745 5744 5742 5741 5740 5738 5737 5735 5733 5732 5730 5727 5725 5722 5720 5717 5714 5711 5708 5705 5703
5770 5770 5768 5768 5766 5764 5762 5760 5757 5756 5753 5751 5748 5745 5744 5743 5740 5738 5737 5735 5734 5733 5732 5731 5729 5728 5727 5725 5723 5722 5720 5718 5716 5713 5710 5707 5704 5701 5698 5695 5693 5689 5686
5761 5760 5758 5757 5755 5754 5752 5749 5747 5744 5742 5740 5736 5734 5733 5731 5729 5727 5725 5723 5722 5720 5719 5717 5716 5715 5714 5712 5711 5709 5706 5705 5702 5699 5696 5693 5690 5687 5683 5680 5678 5673 5670
5752 5750 5749 5747 5745 5743 5741 5739 5736 5733 5730 5727 5725 5723 5719 5717 5715 5714 5712 5711 5709 5707 5706 5705 5704 5702 5701 5699 5696 5693 5692 5689 5687 5684 5681 5678 5675 5671 5668 5664 5661 5659 5657
Wind_Speed
19 17 16 15 14 15 15 15 14 14 14 13 14 14 14 13 13 12 11 11 13 14 13 11 10 9 9 9 10 8 7 7 6 3 4 4 3 9 5 4 7 6 7
20 18 16 15 15 16 15 15 16 16 16 15 15 15 15 15 15 14 14 14 13 14 14 14 12 13 13 13 12 12 10 9 9 8 7 7 5 3 5 8 7 5 6
21 20 19 18 17 16 15 16 16 17 17 17 17 17 18 17 17 18 18 16 16 16 15 16 16 16 15 16 16 16 13 12 12 11 10 9 9 9 8 8 11 8 7
23 22 21 21 20 19 19 20 21 20 20 19 20 19 19 20 21 21 21 20 20 20 20 20 19 19 20 19 17 17 18 17 17 15 15 13 13 11 11 11 13 10 13
26 25 27 23 22 23 24 24 24 24 25 24 24 22 24 24 24 25 23 23 24 24 24 25 24 23 23 23 22 20 20 19 20 20 19 18 15 15 14 15 15 17 16
23 25 28 27 29 27 28 28 26 26 29 29 28 28 28 29 31 30 28 26 26 25 27 26 25 26 26 26 26 23 23 22 21 22 21 19 18 18 19 18 17 18 19
34 32 33 32 30 28 28 35 32 28 31 32 32 30 29 32 31 27 26 29 29 29 27 26 26 29 30 28 28 27 27 25 25 24 25 24 24 22 21 22 20 21 22
38 40 39 30 25 30 33 31 30 29 31 27 28 28 30 33 31 33 32 32 35 32 31 30 29 29 27 28 30 31 29 29 30 30 28 25 25 24 24 24 25 24 25
5 12 17 16 26 37 32 26 29 27 28 25 30 29 28 26 28 29 32 30 33 38 36 33 32 33 31 30 29 28 31 34 33 36 34 31 31 32 32 31 32 30 29
14 14 14 16 15 26 29 27 24 30 35 31 33 36 43 37 39 33 34 35 32 34 40 41 41 37 35 35 37 36 37 36 38 37 39 37 38 37 36 35 37 36 34
14 18 22 20 20 20 22 25 27 30 28 31 33 33 34 35 39 38 41 42 38 38 37 36 42 44 43 45 45 46 42 39 40 40 35 35 40 39 41 39 39 39 39
19 21 22 23 25 26 26 29 29 31 28 26 24 33 34 33 39 33 30 33 38 40 42 43 39 39 37 37 34 35 37 34 35 36 38 37 39 40 40 40 43 44 45
22 24 25 26 27 27 26 23 27 26 27 27 25 27 18 20 19 22 17 19 20 21 22 28 28 25 23 26 23 27 33 31 24 30 31 35 39 33 42 37 36 41 40
24 25 26 29 28 27 28 29 27 26 25 25 26 24 24 25 26 28 30 30 28 27 25 22 29 30 30 28 29 31 34 34 34 35 31 31 34 36 37 38 42 43 46
27 28 28 29 31 33 33 32 33 33 31 29 29 29 31 33 34 35 37 38 38 37 36 35 35 38 39 39 39 39 41 41 42 36 43 41 38 43 43 45 47 47 48
28 28 29 31 31 32 34 34 34 34 34 35 35 37 38 39 41 41 40 40 42 43 44 43 44 44 45 46 48 46 47 48 50 52 53 55 55 52 53 55 56 56 56
33 31 31 32 34 35 37 37 37 37 36 36 37 37 39 41 42 45 48 50 47 48 48 47 47 48 50 50 51 53 54 56 55 57 59 59 60 57 57 58 57 57 55
34 34 35 37 39 40 40 40 39 38 38 37 37 38 37 37 38 39 41 44 46 48 50 51 53 54 53 54 54 56 56 56 57 58 59 61 60 60 60 59 58 60 62
33 33 33 31 31 33 35 38 39 41 42 42 43 43 43 43 43 42 42 42 43 43 44 45 46 46 47 48 49 49 49 49 51 51 51 52 54 53 52 53 53 54 57
27 28 27 26 26 26 28 29 31 33 34 35 35 36 37 37 38 39 41 42 42 43 43 43 45 47 48 49 50 51 51 51 51 51 52 54 57 58 60 61 60 58 56
17 20 23 25 28 31 34 36 38 40 41 42 43 44 43 44 43 43 43 44 44 44 44 44 44 44 45 45 46 47 48 49 50 51 52 54 55 55 57 57 57 57 56
22 23 25 27 28 31 32 34 36 39 42 44 47 49 51 52 51 50 49 48 47 46 47 46 46 47 47 47 47 46 46 45 46 48 48 49 51 52 53 53 55 55 55
24 25 24 26 27 27 29 30 32 33 36 39 41 41 44 48 51 50 48 47 45 44 43 42 41 39 39 39 39 39 39 39 40 41 42 43 44 46 47 48 49 49 51
25 25 26 25 27 28 29 30 32 34 36 37 38 40 41 42 43 45 45 44 43 43 43 42 40 39 38 37 37 38 39 39 39 40 42 44 44 47 48 49 50 51 51
26 26 27 27 28 29 32 33 34 35 35 36 39 39 38 41 41 40 40 40 42 42 41 39 39 38 38 40 42 44 44 44 44 45 45 45 45 46 46 47 47 49 48
27 29 29 30 30 32 34 34 35 35 36 36 36 36 38 39 39 40 42 41 42 43 43 44 42 43 47 48 47 46 46 45 46 45 45 44 43 43 44 44 42 36 30
Wind_Direction
212 205 206 209 209 212 214 215 214 215 222 231 234 234 237 238 244 250 252 255 264 270 276 276 279 280 276 267 270 277 285 292 300 298 279 306 350 12 356 314 313 67 20
220 218 212 218 221 221 222 226 225 226 228 229 234 240 242 244 249 254 256 257 259 266 272 277 281 282 283 281 277 274 272 280 293 293 284 284 292 294 298 300 302 331 5
226 228 223 223 231 234 236 235 234 234 237 235 236 243 247 252 254 260 263 262 266 267 267 273 278 278 275 276 276 274 272 268 269 278 280 280 274 267 270 287 293 305 291
229 232 237 235 232 238 243 242 240 241 239 239 241 242 247 251 257 261 265 268 268 269 273 274 275 278 281 278 273 273 271 271 270 269 269 267 265 268 271 270 271 263 276
230 234 241 234 237 239 240 243 243 244 245 246 246 246 250 252 256 258 261 266 268 270 272 275 278 279 277 274 275 276 273 271 272 272 269 271 277 276 273 271 268 267 255
225 234 235 231 237 240 241 241 241 249 250 248 247 246 251 258 255 258 258 259 265 267 270 271 274 278 275 274 273 270 271 273 272 270 270 273 272 271 269 272 271 272 272
218 235 242 245 238 245 253 253 246 241 251 252 251 251 252 257 266 266 261 260 264 270 269 263 275 278 272 268 271 272 272 268 268 269 267 268 269 269 264 267 269 267 267
232 232 240 234 241 239 247 249 256 258 267 280 255 263 260 258 260 263 265 267 262 261 266 267 270 274 279 263 265 263 265 271 272 266 265 263 266 269 265 267 269 266 266
236 220 221 227 236 244 250 250 250 259 262 270 270 275 277 272 262 259 270 266 278 261 263 268 269 270 273 274 277 267 266 274 275 263 261 262 259 264 259 267 265 268 269
275 274 263 269 275 248 255 252 276 266 268 274 281 265 259 261 254 254 258 263 265 271 267 267 266 265 269 275 270 267 266 268 274 278 264 252 256 259 264 267 264 268 267
239 250 257 258 260 264 270 269 274 272 275 276 276 261 270 267 256 254 261 260 262 259 259 266 264 260 261 265 272 269 267 269 272 268 267 263 257 257 264 265 266 267 266
253 252 252 261 263 263 260 274 263 270 271 278 280 258 263 270 260 254 262 263 264 264 261 261 266 261 263 268 269 271 268 271 266 266 266 265 262 264 267 266 267 267 269
258 252 254 257 258 261 266 260 265 267 260 262 269 271 274 277 255 272 252 275 279 264 265 256 244 247 253 250 241 250 267 261 264 271 269 271 266 270 265 260 264 262 267
246 250 254 257 258 260 260 261 262 263 258 260 268 259 242 243 245 241 244 249 247 249 254 255 264 256 253 251 250 248 253 262 267 270 270 267 270 264 270 273 272 268 268
253 246 248 251 255 263 263 260 258 261 261 261 264 260 250 246 246 245 247 247 247 247 248 250 248 252 256 261 258 255 258 263 263 265 270 262 254 266 275 275 271 272 274
256 255 257 256 255 255 259 264 264 263 264 263 263 261 259 257 256 256 256 257 257 255 255 255 255 256 257 259 262 263 265 266 270 272 272 271 273 271 273 271 272 272 273
254 251 253 258 260 258 258 261 262 262 268 270 270 270 268 266 262 262 262 265 266 264 265 265 267 267 267 264 265 267 268 269 270 271 271 271 273 272 270 271 270 272 273
247 248 249 253 255 258 262 266 268 270 271 273 274 273 274 275 272 269 267 266 267 268 270 270 270 271 272 271 271 270 269 270 272 271 271 272 272 272 274 275 276 275 273
254 256 261 268 269 269 271 272 274 277 277 278 278 279 280 279 278 277 275 274 273 273 272 272 272 272 273 272 271 269 274 276 275 275 275 274 274 275 276 275 275 278 278
261 265 269 271 272 275 277 277 278 278 277 277 277 277 277 276 275 275 275 275 273 272 271 269 270 270 270 270 272 274 275 275 274 274 274 273 274 276 278 281 284 285 283
257 262 266 270 272 273 274 275 275 275 275 275 275 275 273 273 272 271 271 272 272 273 272 272 272 272 272 273 275 277 278 278 279 279 278 277 278 279 280 281 280 281 283
265 267 270 273 276 277 279 281 281 281 281 281 280 280 279 279 279 280 280 278 276 274 274 276 279 279 279 279 280 280 282 281 280 281 281 281 282 282 283 285 286 286 286
264 267 269 271 276 281 285 287 288 288 287 286 285 284 284 283 283 284 285 285 285 286 286 286 287 286 286 286 285 284 283 282 281 281 282 281 281 281 281 282 282 282 283
268 270 273 277 280 282 283 284 286 287 287 285 283 284 284 283 283 283 284 284 284 284 284 283 283 283 285 287 289 289 288 286 284 284 284 283 283 283 283 283 283 284 286
272 271 275 280 284 286 287 288 285 285 287 285 284 284 281 280 282 283 282 282 280 280 280 284 284 281 283 287 291 293 290 287 286 288 287 287 287 286 286 286 287 287 287
275 277 279 279 282 288 292 289 288 288 288 286 286 284 283 283 283 281 280 280 280 279 278 279 279 277 282 290 292 290 290 289 289 290 289 290 291 291 291 291 290 289 288